Hourly Data Report for March 09, 2010

HALIFAX STANFIELD INT'L A
NOVA SCOTIA

44°52'48.060" N
63°30'00.050" W
145.40 m
8202250
71395
YHZ

Download Data

Hourly Data (March 2010)
Hourly Data Report for March 9, 2010
TIME
LST
Temp Definition
°C
Dew Point Definition
°C
Rel Hum Definition
%
Precip. Amount Definition
mm

Wind Dir Definition
10's deg

Wind Spd Definition
km/h
Visibility Definition
km
Stn Press Definition
kPa
Hmdx Definition


Wind Chill Definition


Weather Definition


00:00 -0.1 -1.8 88   33 13 24.1 98.28   -4 Clear
01:00 -0.6 -2.5 87   33 9 24.1 98.27   -4 Clear
02:00 -2.2 -3.6 90   30 9 24.1 98.30   -6 Mainly Clear
03:00 -2.1 -3.8 88   26 11 24.1 98.31   -6 Mainly Clear
04:00 -2.3 -5.8 77   30 17 24.1 98.34   -8 Mainly Clear
05:00 -3.2 -6.0 81   32 13 24.1 98.41   -8 Mainly Clear
06:00 -2.7 -5.2 83   31 15 24.1 98.52   -8 Mostly Cloudy
07:00 -2.7 -5.5 81   29 11 24.1 98.58   -7 Mostly Cloudy
08:00 -2.0 -6.2 73   31 13 4.8 98.67   -6 Snow Showers
09:00 -2.6 -5.7 79   31 24 2.4 98.69   -9 Snow Showers
10:00 -1.9 -11.0 50   31 30 24.1 98.71   -9 Mostly Cloudy
11:00 -1.5 -11.1 48   33 28 24.1 98.75   -8 Cloudy
12:00 -1.2 -10.7 48   29 28 24.1 98.80   -8 Mostly Cloudy
13:00 -0.1 -10.2 46   30 22 24.1 98.80   -6 Mostly Cloudy
14:00 -0.5 -10.6 46   33 20 24.1 98.80   -6 Mostly Cloudy
15:00 -0.2 -10.2 47   31 19 24.1 98.86   -5 Mostly Cloudy
16:00 -0.4 -11.0 45   31 26 24.1 98.92   -7 Mostly Cloudy
17:00 -0.5 -9.9 49   31 19 24.1 98.99   -6 Mostly Cloudy
18:00 -0.8 -10.1 49   28 11 24.1 99.08   -5 Mostly Cloudy
19:00 -2.1 -9.6 56   27 6 24.1 99.17   -4 Mainly Clear
20:00 -2.5 -9.6 58   25 9 24.1 99.24   -6 Clear
21:00 -2.6 -9.9 57   26 11 24.1 99.29   -7 Clear
22:00 -2.9 -10.0 58   27 13 24.1 99.30   -8 Clear
23:00 -2.9 -10.0 58   27 13 24.1 99.34   -8 Clear

Notes on Data Quality.

Legend

  • E = Estimated
  • M = Missing
  • NA = Not Available*
  • [empty] = Indicates an unobserved value
Date modified: